{"data":{"norad_id":67367,"epoch":"2026-05-24T23:42:17.427744Z","epoch_age_seconds":82843,"freshness":"FRESH","line1":"1 67367U 26004E   26144.98770171  .00002169  00000+0  24118-3 0  9994","line2":"2 67367  97.7987 143.8962 0007016 209.2663 150.8161 14.88176303 19848","mean_motion":14.88176303,"eccentricity":0.0007016,"inclination_deg":97.7987,"raan_deg":143.8962,"arg_perigee_deg":209.2663,"mean_anomaly_deg":150.8161,"bstar":0.00024118,"rev_number":1984,"period_min":96.762728790743,"perigee_km":598.73534580701,"apogee_km":608.53216653207,"semimajor_km":6981.7707561695,"source":"CELESTRAK","updated_at":"2026-05-25T13:38:13.578654Z"}}